Flag for Norway Weather past 2 weeks in Fredrikstad, Norway

Now
34 °F

Partly sunny.


Feels Like: 30 °F
Forecast: 38 / 42 °F
Wind: 5 mph from South

Location: Rygge

Current Time: Dec 18, 2014 at 12:06:24 PM

Latest Report: Dec 18, 2014 at 11:20 AM


Visibility: N/A

Pressure: 29.30 "Hg

Humidity: 100%

Dew point: 34 °F

Location of FredrikstadLocation

Historic Weather in Fredrikstad — Graph

°F

Fredrikstad temperature yesterday

Maximum temperature yesterday: 30 °F (at 11:50 PM)
Minimum temperature yesterday: 21 °F (at 8:50 AM)
Average temperature yesterday: 26 °F

Past Weeks' High & Low Weather Summary

 TemperatureHumidityPressure
High46 °F (Dec 7, 10:50 AM)100% (Dec 3, 10:20 AM)30.21 "Hg (Dec 3, 10:20 AM)
Low21 °F (Dec 17, 8:50 AM)60% (Dec 16, 12:50 AM)29.00 "Hg (Dec 12, 5:20 PM)
Average35 °F90%29.54 "Hg
* Reported Dec 3 10:20 AM — Dec 18 10:50 AM, Fredrikstad, Weather by CustomWeather, © 2014

Note: Actual official high and low records may vary slightly from our data, if they occured in-between our weather recording intervals... More about our weather records

Advertising

Fredrikstad weather history for previous 24 hours

 ConditionsComfort  
Time TempWeatherWind HumidityBarometerVisibility
10:50 AM
Dec 18
32 °FPartly sunny.2 mph100%29.33 "HgN/A
10:20 AM34 °FSleet. Partly sunny.6 mph100%29.30 "HgN/A
9:50 AM32 °FIce fog.5 mph100%29.33 "Hg1 mi
9:20 AM32 °FLow clouds.7 mph100%29.33 "Hg1 mi
8:50 AM32 °FLow clouds.3 mph100%29.33 "Hg1 mi
8:20 AM32 °FIce fog.5 mph100%29.33 "Hg1 mi
7:50 AM30 °FIce fog.5 mph100%29.33 "Hg1 mi
7:20 AM30 °FIce fog.3 mph100%29.33 "Hg0 mi
6:50 AM30 °FIce fog.3 mph100%29.36 "Hg1 mi
6:20 AM30 °FIce fog.2 mph100%29.36 "Hg1 mi
5:50 AM30 °FLow clouds.3 mph100%29.36 "Hg1 mi
5:20 AM30 °FLow clouds.2 mph100%29.36 "Hg1 mi
4:20 AM30 °FLow clouds.3 mph93%29.36 "Hg3 mi
3:50 AM30 °FLow clouds.2 mph93%29.36 "Hg5 mi
3:20 AM30 °FLow clouds.5 mph93%29.36 "Hg5 mi
2:50 AM30 °FLow clouds.6 mph93%29.36 "Hg3 mi
2:20 AM30 °FIce fog.3 mph100%29.36 "Hg2 mi
1:50 AM30 °FIce fog.8 mph100%29.36 "Hg3 mi
1:20 AM30 °FLight snow. Mostly cloudy.6 mph100%29.36 "Hg2 mi
12:50 AM30 °FLight snow. Mostly cloudy.7 mph93%29.36 "Hg1 mi
12:20 AM30 °FLight freezing rain. Low clouds.6 mph100%29.36 "Hg2 mi
11:50 PM
Dec 17
30 °FLight freezing rain. Low clouds.5 mph100%29.39 "Hg3 mi
11:20 PM28 °FLight snow. Passing clouds.5 mph100%29.42 "Hg5 mi
10:50 PM28 °FLight snow. Passing clouds.6 mph100%29.42 "Hg6 mi
10:20 PM28 °FLight snow. Passing clouds.5 mph93%29.42 "HgN/A
9:50 PM28 °FLight snow. Passing clouds.6 mph93%29.45 "Hg4 mi
9:20 PM28 °FLight snow. Ice fog.6 mph93%29.45 "Hg1 mi
8:50 PM28 °FLight snow. Ice fog.5 mph93%29.45 "Hg3 mi
8:20 PM28 °FIce fog.3 mph93%29.47 "HgN/A
7:50 PM27 °FClear.2 mph93%29.47 "Hg10 mi
7:20 PM27 °FClear.6 mph93%29.45 "Hg10 mi
6:50 PM27 °FClear.5 mph93%29.45 "Hg10 mi
6:20 PM25 °FClear.5 mph93%29.47 "Hg10 mi
5:50 PM25 °FClear.3 mph100%29.47 "Hg10 mi
5:20 PM25 °FClear.2 mph93%29.47 "Hg10 mi
4:50 PM25 °FClear.No wind93%29.47 "Hg10 mi
4:20 PM25 °FClear.1 mph93%29.47 "Hg10 mi
3:50 PM25 °FClear.No wind93%29.47 "Hg10 mi
3:20 PM25 °FClear.1 mph93%29.47 "Hg10 mi
2:50 PM25 °FSunny.No wind93%29.47 "Hg10 mi
2:20 PM25 °FSunny.1 mph93%29.47 "Hg10 mi
1:50 PM25 °FSunny.3 mph93%29.47 "Hg10 mi
1:20 PM25 °FSunny.2 mph93%29.47 "Hg10 mi
12:50 PM25 °FSunny.2 mph93%29.50 "Hg10 mi
12:20 PM25 °FSunny.2 mph93%29.50 "Hg10 mi
Weather by CustomWeather, © 2014

See weather overviewHow to use our weather pages